Regional Weather Roundup
Issued by NWS

Home | Current Version | Previous Version | Graphics & Text | Print | Product List | Glossary On
Versions: 1 2 3 4 5 6 7 8 9 10 11 12 13 14 15 16 17 18 19 20 21 22 23 24 25 26 27 28 29 30 31 32 33 34 35 36 37 38 39 40 41 42 43 44 45 46 47 48 49 50
000
ASUS43 KOAX 142010
RWRNE

WEATHER ROUNDUP FOR NEBRASKA
NATIONAL WEATHER SERVICE OMAHA NE
200 PM CST THU DEC 14 2017

NOTES: SATELLITE DATA IS BEING USED TO AUGMENT CLOUD COVER ABOVE
       12000 FEET.
       "FAIR" INDICATES FEW OR NO CLOUDS BELOW 12,000 FEET WITH NO
       SIGNIFICANT WEATHER AND/OR OBSTRUCTIONS TO VISIBILITY.


NEZ001>004-019>022-054>056-142100-
NEBRASKA PANHANDLE

CITY           SKY/WX    TMP DP  RH WIND       PRES   REMARKS
SCOTTSBLUFF    CLOUDY    35  22  58 N28G33    30.22S WCI  22
ALLIANCE       FLURRIES  31  28  89 N17       30.17S WCI  19
CHADRON        CLOUDY    36  17  46 N18G24    30.20F WCI  26
GORDON         FLURRIES  32  27  80 N18       30.16S WCI  21
KIMBALL        LGT RAIN  34  16  48 N26G35    30.19S WCI  21
SIDNEY         CLOUDY    35  20  54 N29G37    30.18F WCI  22
$$

NEZ057>060-069>072-079>082-142100-
SOUTHWEST NEBRASKA

CITY           SKY/WX    TMP DP  RH WIND       PRES   REMARKS
NORTH PLATTE   PTSUNNY   40  23  50 N25G32    30.13F WCI  29
IMPERIAL       CLOUDY    38  23  55 N22G30    30.16S WCI  27
LEXINGTON      CLOUDY    39  31  72 N25G32    30.11S WCI  28
MCCOOK         CLOUDY    41  26  55 N23G35    30.13R
OGALLALA       LGT SNOW  36  30  78 NW21G38   30.17R WCI  25
$$

NEZ005>010-023>029-035>040-094-142100-
NORTH CENTRAL NEBRASKA

CITY           SKY/WX    TMP DP  RH WIND       PRES   REMARKS
VALENTINE      LGT SNOW  34  31  88 NW20G28   30.12F VSB 1   WCI  23
AINSWORTH      CLOUDY    33  32  96 N16G23    30.10S WCI  22
BROKEN BOW     FLURRIES  36  35  96 N21G35    30.09S WCI  25
O`NEILL        LGT SNOW  34  34 100 N18G25    30.07S WCI  23
ORD            LGT RAIN  37  34  89 N15       30.07S WCI  28
THEDFORD       CLOUDY    35  30  80 N26       30.13S WCI  23
$$

NEZ041-046>049-061>064-073>077-083>087-142100-
SOUTH CENTRAL NEBRASKA

CITY           SKY/WX    TMP DP  RH WIND       PRES   REMARKS
GRAND ISLAND   LGT RAIN  38  36  92 NW15      30.07S WCI  29
AURORA         DRIZZLE   37  35  91 N15       30.07S WCI  28
HASTINGS       LGT RAIN  39  35  86 NW17      30.07S WCI  30
HEBRON         CLOUDY    42  33  70 NW8       30.07F
HOLDREGE       CLOUDY    39  32  75 N21G29    30.09R WCI  29
KEARNEY        LGT RAIN  38  34  85 N22       30.08R WCI  27
YORK           LGT RAIN  37  37 100 NW7       30.07S WCI  32
$$

NEZ011>018-030>034-042>045-142100-
NORTHEAST NEBRASKA

CITY           SKY/WX    TMP DP  RH WIND       PRES   REMARKS
NORFOLK        CLOUDY    37  27  67 NW13      30.03F WCI  29
ALBION         DRIZZLE   36  35  94 NW9       30.06S WCI  29
BLAIR          CLOUDY    40  27  59 NW10      30.03S WCI  34
COLUMBUS       LGT RAIN  37  32  82 W9        30.07S WCI  30
FREMONT        CLOUDY    41  27  56 NW12      30.06R
TEKAMAH        CLOUDY    41  24  51 NW12      30.06R
WAYNE          CLOUDY    37  25  60 NW8       30.05S WCI  31
$$

NEZ050>053-065>068-078-088>093-142100-
SOUTHEAST NEBRASKA

CITY           SKY/WX    TMP DP  RH WIND       PRES   REMARKS
LINCOLN        CLOUDY    42  27  55 NW12      30.07F
OMAHA EPPLEY   CLOUDY    41  25  53 NW10      30.05F
BEATRICE       CLOUDY    43  29  57 NW13      30.06S
FALLS CITY     CLOUDY    42  25  50 NW9       30.05F
NEBRASKA CITY  CLOUDY    42  26  54 N9        30.05S
PLATTSMOUTH    CLOUDY    41  26  56 NW10      30.04S
$$

NEZ044-045-051>053-067-142100-
OMAHA AREA

CITY           SKY/WX    TMP DP  RH WIND       PRES   REMARKS
OMAHA EPPLEY   CLOUDY    41  25  53 NW10      30.05F
BLAIR          CLOUDY    40  27  59 NW10      30.03S WCI  34
FREMONT        CLOUDY    41  27  56 NW12      30.06R
MILLARD        CLOUDY    42  27  56 NW7       30.06S
OFFUTT AFB     CLOUDY    41  24  50 NW9       30.05S
PLATTSMOUTH    CLOUDY    41  26  56 NW10      30.04S
WAHOO          CLOUDY    41  26  55 NW13      30.05F
$$



USA.gov is the U.S. government's official web portal to all federal, state and local government web resources and services.